| time (UTC) | temp F | wind direction | speed MPH | gust MPH | rain 1hr in | rain 24hr in | rain mn in | humidity % | barometer mb |
| 20260905002006 | 89 | 92 | 5.0 | 9.0 | 0.00 | 0.00 | 0.00 | 23 | 1015.3 |
| 20260905001506 | 89 | 90 | 5.0 | 11.0 | 0.00 | 0.00 | 0.00 | 22 | 1015.3 |
| 20260905001005 | 89 | 94 | 6.0 | 11.0 | 0.00 | 0.00 | 0.00 | 22 | 1015.2 |
| 20260905000506 | 90 | 93 | 5.0 | 11.0 | 0.00 | 0.00 | 0.00 | 23 | 1015.2 |
| 20260905000008 | 90 | 104 | 5.0 | 11.0 | 0.00 | 0.00 | 0.00 | 22 | 1015.3 |
| 20260904235509 | 90 | 94 | 3.0 | 13.0 | 0.00 | 0.00 | 0.00 | 21 | 1015.2 |
| 20260904235011 | 90 | 98 | 4.0 | 13.0 | 0.00 | 0.00 | 0.00 | 22 | 1015.2 |
| 20260904234507 | 90 | 86 | 6.0 | 11.0 | 0.00 | 0.00 | 0.00 | 21 | 1015.1 |
| 20260904234011 | 90 | 105 | 5.0 | 11.0 | 0.00 | 0.00 | 0.00 | 20 | 1015.0 |
| 20260904233507 | 90 | 91 | 5.0 | 11.0 | 0.00 | 0.00 | 0.00 | 20 | 1015.1 |
| 20260904233006 | 90 | 103 | 5.0 | 10.0 | 0.00 | 0.00 | 0.00 | 21 | 1015.1 |
| 20260904232507 | 91 | 94 | 6.0 | 10.0 | 0.00 | 0.00 | 0.00 | 20 | 1015.0 |
| 20260904232005 | 91 | 98 | 4.0 | 11.0 | 0.00 | 0.00 | 0.00 | 21 | 1015.1 |
| 20260904231513 | 91 | 101 | 7.0 | 11.0 | 0.00 | 0.00 | 0.00 | 20 | 1014.9 |
| 20260904231015 | 91 | 92 | 7.0 | 10.0 | 0.00 | 0.00 | 0.00 | 21 | 1015.0 |
| 20260904230508 | 91 | 110 | 6.0 | 10.0 | 0.00 | 0.00 | 0.00 | 20 | 1015.1 |
| 20260904230027 | 91 | 89 | 4.0 | 11.0 | 0.00 | 0.00 | 0.00 | 21 | 1015.1 |
| 20260904225528 | 91 | 102 | 5.0 | 14.0 | 0.00 | 0.00 | 0.00 | 19 | 1015.1 |
| 20260904225026 | 91 | 102 | 8.0 | 14.0 | 0.00 | 0.00 | 0.00 | 19 | 1015.0 |
| 20260904224505 | 91 | 92 | 6.0 | 10.0 | 0.00 | 0.00 | 0.00 | 19 | 1015.0 |
| 20260904224004 | 92 | 96 | 4.0 | 14.0 | 0.00 | 0.00 | 0.00 | 19 | 1014.9 |
| 20260904223503 | 92 | 103 | 8.0 | 14.0 | 0.00 | 0.00 | 0.00 | 17 | 1015.0 |
| 20260904223006 | 93 | 131 | 5.0 | 10.0 | 0.00 | 0.00 | 0.00 | 17 | 1014.9 |
| 20260904222504 | 93 | 89 | 1.0 | 9.0 | 0.00 | 0.00 | 0.00 | 18 | 1014.9 |
| 20260904222006 | 92 | 78 | 4.0 | 9.0 | 0.00 | 0.00 | 0.00 | 17 | 1015.0 |
| 20260904221505 | 92 | 94 | 5.0 | 13.0 | 0.00 | 0.00 | 0.00 | 17 | 1015.0 |
| 20260904221005 | 92 | 118 | 8.0 | 13.0 | 0.00 | 0.00 | 0.00 | 17 | 1015.0 |
| 20260904220508 | 93 | 108 | 7.0 | 11.0 | 0.00 | 0.00 | 0.00 | 16 | 1015.0 |
| 20260904220009 | 94 | 107 | 2.0 | 11.0 | 0.00 | 0.00 | 0.00 | 16 | 1015.1 |
| 20260904215508 | 93 | 103 | 4.0 | 11.0 | 0.00 | 0.00 | 0.00 | 14 | 1015.0 |
| 20260904215007 | 93 | 136 | 3.0 | 8.0 | 0.00 | 0.00 | 0.00 | 15 | 1015.1 |
| 20260904214507 | 93 | 111 | 3.0 | 8.0 | 0.00 | 0.00 | 0.00 | 18 | 1015.1 |
| 20260904214011 | 92 | 98 | 4.0 | 8.0 | 0.00 | 0.00 | 0.00 | 17 | 1015.1 |
| 20260904213506 | 92 | 96 | 4.0 | 8.0 | 0.00 | 0.00 | 0.00 | 15 | 1015.2 |
| 20260904213034 | 92 | 89 | 5.0 | 8.0 | 0.00 | 0.00 | 0.00 | 16 | 1015.2 |
| 20260904212527 | 93 | 117 | 2.0 | 12.0 | 0.00 | 0.00 | 0.00 | 15 | 1015.3 |
| 20260904212027 | 92 | 108 | 3.0 | 12.0 | 0.00 | 0.00 | 0.00 | 16 | 1015.3 |
| 20260904211507 | 92 | 103 | 4.0 | 8.0 | 0.00 | 0.00 | 0.00 | 16 | 1015.4 |
| 20260904211007 | 91 | 107 | 5.0 | 13.0 | 0.00 | 0.00 | 0.00 | 16 | 1015.5 |
| 20260904210507 | 90 | 102 | 6.0 | 13.0 | 0.00 | 0.00 | 0.00 | 18 | 1015.5 |
| 20260904210013 | 92 | 99 | 6.0 | 10.0 | 0.00 | 0.00 | 0.00 | 16 | 1015.7 |
| 20260904205507 | 91 | 92 | 5.0 | 12.0 | 0.00 | 0.00 | 0.00 | 20 | 1015.7 |
| 20260904205005 | 91 | 110 | 6.0 | 14.0 | 0.00 | 0.00 | 0.00 | 18 | 1015.8 |
| 20260904204516 | 92 | 96 | 5.0 | 14.0 | 0.00 | 0.00 | 0.00 | 18 | 1016.0 |
| 20260904204010 | 92 | 110 | 4.0 | 9.0 | 0.00 | 0.00 | 0.00 | 19 | 1015.9 |
| 20260904203509 | 92 | 77 | 3.0 | 10.0 | 0.00 | 0.00 | 0.00 | 20 | 1016.1 |
| 20260904203013 | 91 | 55 | 6.0 | 14.0 | 0.00 | 0.00 | 0.00 | 20 | 1016.2 |
| 20260904202512 | 91 | 113 | 6.0 | 14.0 | 0.00 | 0.00 | 0.00 | 20 | 1016.2 |
| 20260904202008 | 92 | 88 | 8.0 | 14.0 | 0.00 | 0.00 | 0.00 | 18 | 1016.3 |
| 20260904201505 | 92 | 131 | 2.0 | 11.0 | 0.00 | 0.00 | 0.00 | 18 | 1016.4 |
| 20260904201004 | 91 | 160 | 5.0 | 11.0 | 0.00 | 0.00 | 0.00 | 18 | 1016.4 |
| 20260904200504 | 90 | 91 | 5.0 | 12.0 | 0.00 | 0.00 | 0.00 | 20 | 1016.5 |
| 20260904200009 | 90 | 96 | 5.0 | 13.0 | 0.00 | 0.00 | 0.00 | 19 | 1016.6 |
| 20260904195510 | 90 | 88 | 5.0 | 15.0 | 0.00 | 0.00 | 0.00 | 19 | 1016.6 |
| 20260904195008 | 90 | 110 | 8.0 | 15.0 | 0.00 | 0.00 | 0.00 | 20 | 1016.6 |
| 20260904194509 | 90 | 117 | 6.0 | 11.0 | 0.00 | 0.00 | 0.00 | 19 | 1016.6 |
| 20260904194008 | 91 | 116 | 3.0 | 10.0 | 0.00 | 0.00 | 0.00 | 18 | 1016.7 |
| 20260904193509 | 90 | 95 | 4.0 | 11.0 | 0.00 | 0.00 | 0.00 | 18 | 1016.6 |
| 20260904193010 | 90 | 90 | 4.0 | 13.0 | 0.00 | 0.00 | 0.00 | 17 | 1016.8 |
| 20260904192506 | 89 | 88 | 5.0 | 13.0 | 0.00 | 0.00 | 0.00 | 18 | 1016.8 |
| 20260904192009 | 90 | 105 | 6.0 | 11.0 | 0.00 | 0.00 | 0.00 | 15 | 1016.8 |
| 20260904191507 | 90 | 100 | 4.0 | 11.0 | 0.00 | 0.00 | 0.00 | 16 | 1016.8 |
| 20260904191007 | 89 | 101 | 2.0 | 11.0 | 0.00 | 0.00 | 0.00 | 17 | 1016.9 |
| 20260904190507 | 90 | 97 | 7.0 | 11.0 | 0.00 | 0.00 | 0.00 | 17 | 1016.8 |
| 20260904190007 | 89 | 111 | 4.0 | 10.0 | 0.00 | 0.00 | 0.00 | 17 | 1017.0 |
| 20260904185507 | 89 | 89 | 6.0 | 10.0 | 0.00 | 0.00 | 0.00 | 20 | 1017.1 |
| 20260904185009 | 90 | 86 | 5.0 | 10.0 | 0.00 | 0.00 | 0.00 | 20 | 1017.2 |
| 20260904184520 | 90 | 154 | 2.0 | 9.0 | 0.00 | 0.00 | 0.00 | 18 | 1017.3 |
| 20260904184010 | 90 | 174 | 4.0 | 9.0 | 0.00 | 0.00 | 0.00 | 20 | 1017.3 |
| 20260904183512 | 89 | 129 | 2.0 | 9.0 | 0.00 | 0.00 | 0.00 | 19 | 1017.3 |
| 20260904183010 | 89 | 130 | 4.0 | 9.0 | 0.00 | 0.00 | 0.00 | 19 | 1017.3 |
| 20260904182511 | 89 | 200 | 4.0 | 8.0 | 0.00 | 0.00 | 0.00 | 18 | 1017.4 |
| 20260904182010 | 88 | 101 | 5.0 | 10.0 | 0.00 | 0.00 | 0.00 | 21 | 1017.4 |
| 20260904181518 | 88 | 91 | 5.0 | 10.0 | 0.00 | 0.00 | 0.00 | 20 | 1017.5 |
| 20260904181010 | 88 | 101 | 3.0 | 9.0 | 0.00 | 0.00 | 0.00 | 20 | 1017.6 |
| 20260904180509 | 88 | 176 | 2.0 | 9.0 | 0.00 | 0.00 | 0.00 | 22 | 1017.6 |
| 20260904180030 | 88 | 176 | 3.0 | 9.0 | 0.00 | 0.00 | 0.00 | 21 | 1017.6 |
| 20260904175510 | 87 | 105 | 3.0 | 8.0 | 0.00 | 0.00 | 0.00 | 22 | 1017.7 |
| 20260904175012 | 88 | 141 | 3.0 | 8.0 | 0.00 | 0.00 | 0.00 | 22 | 1017.7 |
| 20260904174510 | 87 | 96 | 3.0 | 9.0 | 0.00 | 0.00 | 0.00 | 22 | 1017.7 |
| 20260904174010 | 87 | 108 | 4.0 | 9.0 | 0.00 | 0.00 | 0.00 | 21 | 1017.8 |
| 20260904173509 | 86 | 109 | 3.0 | 9.0 | 0.00 | 0.00 | 0.00 | 23 | 1017.8 |
| 20260904173022 | 87 | 105 | 4.0 | 9.0 | 0.00 | 0.00 | 0.00 | 21 | 1017.9 |
| 20260904172513 | 87 | 183 | 2.0 | 7.0 | 0.00 | 0.00 | 0.00 | 24 | 1017.9 |
| 20260904172015 | 86 | 172 | 3.0 | 7.0 | 0.00 | 0.00 | 0.00 | 21 | 1017.9 |
| 20260904171529 | 86 | 122 | 2.0 | 7.0 | 0.00 | 0.00 | 0.00 | 25 | 1017.9 |
| 20260904171014 | 85 | 162 | 2.0 | 7.0 | 0.00 | 0.00 | 0.00 | 23 | 1017.9 |
| 20260904170516 | 85 | 108 | 2.0 | 7.0 | 0.00 | 0.00 | 0.00 | 25 | 1017.9 |
| 20260904170012 | 84 | 167 | 3.0 | 7.0 | 0.00 | 0.00 | 0.00 | 26 | 1017.9 |
| 20260904165512 | 84 | 129 | 3.0 | 9.0 | 0.00 | 0.00 | 0.00 | 26 | 1017.9 |
| 20260904165010 | 84 | 119 | 3.0 | 9.0 | 0.00 | 0.00 | 0.00 | 28 | 1018.1 |
| 20260904164513 | 83 | 105 | 4.0 | 8.0 | 0.00 | 0.00 | 0.00 | 27 | 1018.1 |
| 20260904164014 | 83 | 114 | 2.0 | 6.0 | 0.00 | 0.00 | 0.00 | 27 | 1018.0 |
| 20260904163512 | 83 | 157 | 2.0 | 7.0 | 0.00 | 0.00 | 0.00 | 27 | 1018.0 |
| 20260904163016 | 83 | 113 | 3.0 | 7.0 | 0.00 | 0.00 | 0.00 | 26 | 1018.0 |
| 20260904162514 | 83 | 143 | 2.0 | 6.0 | 0.00 | 0.00 | 0.00 | 27 | 1018.1 |
| 20260904162012 | 81 | 167 | 2.0 | 9.0 | 0.00 | 0.00 | 0.00 | 27 | 1018.0 |
| 20260904161514 | 80 | 200 | 2.0 | 9.0 | 0.00 | 0.00 | 0.00 | 28 | 1018.2 |
| 20260904161012 | 80 | 195 | 4.0 | 8.0 | 0.00 | 0.00 | 0.00 | 29 | 1018.2 |
| 20260904160511 | 79 | 156 | 3.0 | 7.0 | 0.00 | 0.00 | 0.00 | 29 | 1018.1 |
| 20260904160017 | 79 | 209 | 3.0 | 6.0 | 0.00 | 0.00 | 0.00 | 29 | 1018.1 |
| 20260904155517 | 79 | 132 | 1.0 | 6.0 | 0.00 | 0.00 | 0.00 | 29 | 1018.2 |
| 20260904155017 | 79 | 116 | 2.0 | 6.0 | 0.00 | 0.00 | 0.00 | 29 | 1018.2 |
| 20260904154532 | 78 | 117 | 2.0 | 6.0 | 0.00 | 0.00 | 0.00 | 30 | 1018.1 |
| 20260904154017 | 78 | 165 | 2.0 | 7.0 | 0.00 | 0.00 | 0.00 | 31 | 1018.0 |
| 20260904153513 | 77 | 110 | 4.0 | 7.0 | 0.00 | 0.00 | 0.00 | 30 | 1018.0 |
| 20260904153018 | 77 | 136 | 3.0 | 7.0 | 0.00 | 0.00 | 0.00 | 30 | 1018.0 |
| 20260904152515 | 77 | 141 | 2.0 | 6.0 | 0.00 | 0.00 | 0.00 | 32 | 1018.0 |
| 20260904152013 | 76 | 130 | 2.0 | 7.0 | 0.00 | 0.00 | 0.00 | 32 | 1018.0 |
| 20260904151517 | 76 | 115 | 4.0 | 7.0 | 0.00 | 0.00 | 0.00 | 32 | 1017.9 |
| 20260904151016 | 75 | 184 | 4.0 | 7.0 | 0.00 | 0.00 | 0.00 | 33 | 1017.9 |
| 20260904150515 | 74 | 148 | 3.0 | 7.0 | 0.00 | 0.00 | 0.00 | 33 | 1018.0 |
| 20260904150015 | 74 | 170 | 2.0 | 8.0 | 0.00 | 0.00 | 0.00 | 35 | 1018.0 |
| 20260904145514 | 73 | 179 | 3.0 | 8.0 | 0.00 | 0.00 | 0.00 | 37 | 1017.9 |
| 20260904145015 | 73 | 172 | 4.0 | 7.0 | 0.00 | 0.00 | 0.00 | 38 | 1018.0 |
| 20260904144516 | 73 | 209 | 2.0 | 8.0 | 0.00 | 0.00 | 0.00 | 39 | 1017.9 |
| 20260904144019 | 72 | 191 | 2.0 | 8.0 | 0.00 | 0.00 | 0.00 | 40 | 1017.9 |
| 20260904143514 | 72 | 200 | 2.0 | 8.0 | 0.00 | 0.00 | 0.00 | 42 | 1017.9 |
| 20260904143018 | 71 | 196 | 4.0 | 8.0 | 0.00 | 0.00 | 0.00 | 42 | 1017.9 |
| 20260904142514 | 71 | 191 | 4.0 | 7.0 | 0.00 | 0.00 | 0.00 | 42 | 1017.8 |
| 20260904142014 | 70 | 211 | 4.0 | 7.0 | 0.00 | 0.00 | 0.00 | 43 | 1017.9 |
| 20260904141518 | 70 | 197 | 4.0 | 6.0 | 0.00 | 0.00 | 0.00 | 43 | 1017.8 |
| 20260904141017 | 69 | 199 | 3.0 | 6.0 | 0.00 | 0.00 | 0.00 | 44 | 1017.8 |
| 20260904140517 | 69 | 198 | 3.0 | 6.0 | 0.00 | 0.00 | 0.00 | 44 | 1017.7 |
| 20260904140018 | 68 | 198 | 3.0 | 6.0 | 0.00 | 0.00 | 0.00 | 45 | 1017.6 |
| 20260904135522 | 68 | 199 | 4.0 | 7.0 | 0.00 | 0.00 | 0.00 | 46 | 1017.5 |
| 20260904135018 | 67 | 198 | 4.0 | 7.0 | 0.00 | 0.00 | 0.00 | 47 | 1017.4 |
| 20260904134518 | 67 | 207 | 4.0 | 6.0 | 0.00 | 0.00 | 0.00 | 48 | 1017.4 |
| 20260904134019 | 66 | 193 | 4.0 | 8.0 | 0.00 | 0.00 | 0.00 | 48 | 1017.3 |
| 20260904133515 | 66 | 201 | 5.0 | 8.0 | 0.00 | 0.00 | 0.00 | 48 | 1017.2 |
| 20260904133020 | 66 | 205 | 4.0 | 6.0 | 0.00 | 0.00 | 0.00 | 49 | 1017.2 |
| 20260904132517 | 65 | 203 | 2.0 | 6.0 | 0.00 | 0.00 | 0.00 | 50 | 1017.2 |
| 20260904132016 | 65 | 207 | 3.0 | 6.0 | 0.00 | 0.00 | 0.00 | 51 | 1017.1 |
| 20260904131514 | 64 | 207 | 4.0 | 6.0 | 0.00 | 0.00 | 0.00 | 53 | 1017.1 |
| 20260904131014 | 64 | 210 | 3.0 | 4.0 | 0.00 | 0.00 | 0.00 | 53 | 1017.0 |
| 20260904130513 | 63 | 210 | 2.0 | 4.0 | 0.00 | 0.00 | 0.00 | 54 | 1017.0 |
| 20260904130014 | 62 | 210 | 2.0 | 3.0 | 0.00 | 0.00 | 0.00 | 56 | 1016.9 |
| 20260904125514 | 61 | 210 | 0.0 | 3.0 | 0.00 | 0.00 | 0.00 | 58 | 1016.8 |
| 20260904125013 | 61 | 210 | 1.0 | 3.0 | 0.00 | 0.00 | 0.00 | 60 | 1016.8 |
| 20260904124516 | 60 | 210 | 1.0 | 3.0 | 0.00 | 0.00 | 0.00 | 59 | 1016.8 |
| 20260904124015 | 61 | 210 | 1.0 | 3.0 | 0.00 | 0.00 | 0.00 | 58 | 1016.7 |
| 20260904123515 | 61 | 210 | 1.0 | 3.0 | 0.00 | 0.00 | 0.00 | 57 | 1016.7 |
| 20260904123017 | 61 | 210 | 2.0 | 3.0 | 0.00 | 0.00 | 0.00 | 58 | 1016.6 |
| 20260904122515 | 61 | 210 | 1.0 | 4.0 | 0.00 | 0.00 | 0.00 | 58 | 1016.6 |
| 20260904122015 | 61 | 210 | 2.0 | 4.0 | 0.00 | 0.00 | 0.00 | 58 | 1016.6 |
| 20260904121521 | 61 | 210 | 3.0 | 4.0 | 0.00 | 0.00 | 0.00 | 59 | 1016.5 |
| 20260904121018 | 61 | 210 | 0.0 | 6.0 | 0.00 | 0.00 | 0.00 | 59 | 1016.5 |
| 20260904120518 | 61 | 210 | 1.0 | 6.0 | 0.00 | 0.00 | 0.00 | 59 | 1016.5 |
| 20260904120024 | 61 | 210 | 4.0 | 6.0 | 0.00 | 0.00 | 0.00 | 60 | 1016.5 |
| 20260904115518 | 60 | 217 | 3.0 | 6.0 | 0.00 | 0.00 | 0.00 | 62 | 1016.5 |
| 20260904115017 | 59 | 219 | 4.0 | 6.0 | 0.00 | 0.00 | 0.00 | 63 | 1016.4 |
| 20260904114522 | 59 | 220 | 3.0 | 5.0 | 0.00 | 0.00 | 0.00 | 64 | 1016.4 |
| 20260904114017 | 58 | 293 | 2.0 | 4.0 | 0.00 | 0.00 | 0.00 | 64 | 1016.3 |
| 20260904113521 | 58 | 293 | 1.0 | 3.0 | 0.00 | 0.00 | 0.00 | 63 | 1016.2 |
| 20260904113022 | 59 | 293 | 2.0 | 3.0 | 0.00 | 0.00 | 0.00 | 63 | 1016.1 |
| 20260904112520 | 59 | 293 | 0.0 | 3.0 | 0.00 | 0.00 | 0.00 | 62 | 1016.0 |
| 20260904112019 | 60 | 293 | 1.0 | 3.0 | 0.00 | 0.00 | 0.00 | 61 | 1016.0 |
| 20260904111520 | 60 | 293 | 1.0 | 2.0 | 0.00 | 0.00 | 0.00 | 60 | 1015.9 |
| 20260904111019 | 61 | 293 | 0.0 | 0.0 | 0.00 | 0.00 | 0.00 | 60 | 1015.9 |
| 20260904110518 | 61 | 293 | 0.0 | 0.0 | 0.00 | 0.00 | 0.00 | 58 | 1016.0 |
| 20260904110022 | 61 | 293 | 0.0 | 2.0 | 0.00 | 0.00 | 0.00 | 58 | 1015.9 |
| 20260904105523 | 61 | 293 | 0.0 | 2.0 | 0.00 | 0.00 | 0.00 | 58 | 1015.9 |
| 20260904105024 | 62 | 293 | 1.0 | 3.0 | 0.00 | 0.00 | 0.00 | 57 | 1015.9 |
| 20260904104529 | 62 | 293 | 1.0 | 3.0 | 0.00 | 0.00 | 0.00 | 56 | 1015.8 |
| 20260904104025 | 62 | 293 | 1.0 | 3.0 | 0.00 | 0.00 | 0.00 | 56 | 1015.8 |
| 20260904103520 | 62 | 293 | 1.0 | 3.0 | 0.00 | 0.00 | 0.00 | 55 | 1015.6 |
| 20260904103022 | 62 | 293 | 0.0 | 2.0 | 0.00 | 0.00 | 0.00 | 54 | 1015.6 |
| 20260904102524 | 62 | 293 | 0.0 | 2.0 | 0.00 | 0.00 | 0.00 | 54 | 1015.6 |
| 20260904102025 | 62 | 293 | 0.0 | 2.0 | 0.00 | 0.00 | 0.00 | 53 | 1015.5 |
| 20260904101534 | 63 | 293 | 1.0 | 2.0 | 0.00 | 0.00 | 0.00 | 52 | 1015.5 |
| 20260904101023 | 64 | 293 | 0.0 | 3.0 | 0.00 | 0.00 | 0.00 | 51 | 1015.5 |
| 20260904100523 | 64 | 293 | 1.0 | 3.0 | 0.00 | 0.00 | 0.00 | 50 | 1015.4 |
| 20260904100021 | 64 | 293 | 1.0 | 3.0 | 0.00 | 0.00 | 0.00 | 50 | 1015.3 |
| 20260904095521 | 64 | 293 | 0.0 | 2.0 | 0.00 | 0.00 | 0.00 | 50 | 1015.3 |
| 20260904095022 | 64 | 293 | 0.0 | 1.0 | 0.00 | 0.00 | 0.00 | 50 | 1015.4 |
| 20260904094518 | 64 | 293 | 0.0 | 2.0 | 0.00 | 0.00 | 0.00 | 49 | 1015.4 |
| 20260904094018 | 65 | 293 | 0.0 | 2.0 | 0.00 | 0.00 | 0.00 | 49 | 1015.4 |
| 20260904093522 | 65 | 293 | 0.0 | 2.0 | 0.00 | 0.00 | 0.00 | 49 | 1015.4 |
| 20260904093022 | 65 | 293 | 0.0 | 2.0 | 0.00 | 0.00 | 0.00 | 48 | 1015.3 |
| 20260904092523 | 65 | 293 | 0.0 | 2.0 | 0.00 | 0.00 | 0.00 | 48 | 1015.3 |
| 20260904092023 | 66 | 293 | 0.0 | 3.0 | 0.00 | 0.00 | 0.00 | 47 | 1015.2 |
| 20260904091521 | 66 | 293 | 1.0 | 3.0 | 0.00 | 0.00 | 0.00 | 46 | 1015.3 |
| 20260904091021 | 66 | 293 | 1.0 | 3.0 | 0.00 | 0.00 | 0.00 | 46 | 1015.2 |
| 20260904090528 | 67 | 293 | 0.0 | 2.0 | 0.00 | 0.00 | 0.00 | 45 | 1015.2 |
| 20260904090028 | 67 | 293 | 0.0 | 2.0 | 0.00 | 0.00 | 0.00 | 45 | 1015.3 |
| 20260904085526 | 68 | 293 | 0.0 | 2.0 | 0.00 | 0.00 | 0.00 | 44 | 1015.3 |
| 20260904085029 | 68 | 293 | 0.0 | 3.0 | 0.00 | 0.00 | 0.00 | 44 | 1015.2 |
| 20260904084524 | 68 | 293 | 1.0 | 5.0 | 0.00 | 0.00 | 0.00 | 44 | 1015.2 |
| 20260904084024 | 68 | 293 | 2.0 | 5.0 | 0.00 | 0.00 | 0.00 | 44 | 1015.1 |
| 20260904083527 | 68 | 306 | 1.0 | 4.0 | 0.00 | 0.00 | 0.00 | 44 | 1015.0 |
| 20260904083004 | 67 | 306 | 2.0 | 4.0 | 0.00 | 0.00 | 0.00 | 45 | 1015.0 |
| 20260904082503 | 66 | 283 | 2.0 | 4.0 | 0.00 | 0.00 | 0.00 | 47 | 1015.1 |
| 20260904082004 | 64 | 231 | 2.0 | 4.0 | 0.00 | 0.00 | 0.00 | 48 | 1015.1 |
| 20260904081507 | 65 | 231 | 2.0 | 4.0 | 0.00 | 0.00 | 0.00 | 48 | 1015.1 |
| 20260904081005 | 64 | 229 | 1.0 | 4.0 | 0.00 | 0.00 | 0.00 | 49 | 1015.0 |
| 20260904080505 | 64 | 231 | 1.0 | 3.0 | 0.00 | 0.00 | 0.00 | 50 | 1014.9 |
| 20260904080010 | 64 | 229 | 0.0 | 2.0 | 0.00 | 0.00 | 0.00 | 49 | 1015.0 |
| 20260904075507 | 64 | 229 | 0.0 | 3.0 | 0.00 | 0.00 | 0.00 | 51 | 1015.0 |
| 20260904075005 | 65 | 229 | 2.0 | 3.0 | 0.00 | 0.00 | 0.00 | 50 | 1014.9 |
| 20260904074510 | 66 | 229 | 0.0 | 0.0 | 0.00 | 0.00 | 0.00 | 46 | 1014.9 |
| 20260904074011 | 67 | 229 | 0.0 | 1.0 | 0.00 | 0.00 | 0.00 | 48 | 1015.1 |
| 20260904073512 | 67 | 229 | 0.0 | 1.0 | 0.00 | 0.00 | 0.00 | 45 | 1015.1 |
| 20260904073009 | 67 | 229 | 0.0 | 0.0 | 0.00 | 0.00 | 0.00 | 45 | 1015.0 |
| 20260904072508 | 67 | 229 | 0.0 | 0.0 | 0.00 | 0.00 | 0.00 | 45 | 1015.1 |
| 20260904072007 | 67 | 229 | 0.0 | 0.0 | 0.00 | 0.00 | 0.00 | 44 | 1015.0 |
| 20260904071507 | 68 | 229 | 0.0 | 0.0 | 0.00 | 0.00 | 0.00 | 42 | 1015.1 |
| 20260904071010 | 68 | 229 | 0.0 | 1.0 | 0.00 | 0.00 | 0.00 | 43 | 1015.1 |
| 20260904070506 | 68 | 229 | 0.0 | 2.0 | 0.00 | 0.00 | 0.00 | 43 | 1015.1 |
| 20260904070032 | 68 | 229 | 0.0 | 2.0 | 0.00 | 0.00 | 0.00 | 43 | 1015.1 |
| 20260904065518 | 68 | 229 | 0.0 | 3.0 | 0.00 | 0.00 | 0.00 | 43 | 1015.3 |
| 20260904065011 | 69 | 229 | 1.0 | 3.0 | 0.00 | 0.00 | 0.00 | 43 | 1015.3 |
| 20260904064513 | 69 | 229 | 1.0 | 3.0 | 0.00 | 0.00 | 0.00 | 42 | 1015.3 |
| 20260904064011 | 70 | 229 | 1.0 | 2.0 | 0.00 | 0.00 | 0.00 | 42 | 1015.3 |
| 20260904063510 | 70 | 229 | 0.0 | 4.0 | 0.00 | 0.00 | 0.00 | 39 | 1015.2 |
| 20260904063014 | 70 | 229 | 2.0 | 4.0 | 0.00 | 0.00 | 0.00 | 40 | 1015.4 |
| 20260904062513 | 69 | 231 | 1.0 | 4.0 | 0.00 | 0.00 | 0.00 | 42 | 1015.3 |
| 20260904062011 | 69 | 231 | 2.0 | 5.0 | 0.00 | 0.00 | 0.00 | 42 | 1015.2 |
| 20260904061516 | 68 | 231 | 3.0 | 5.0 | 0.00 | 0.00 | 0.00 | 44 | 1015.3 |
| 20260904061013 | 68 | 233 | 1.0 | 5.0 | 0.00 | 0.00 | 0.00 | 47 | 1015.3 |
| 20260904060513 | 68 | 233 | 3.0 | 8.0 | 0.00 | 0.00 | 0.00 | 46 | 1015.2 |
| 20260904060009 | 69 | 232 | 5.0 | 8.0 | 0.00 | 0.00 | 0.00 | 45 | 1015.3 |
| 20260904055508 | 69 | 204 | 4.0 | 8.0 | 0.00 | 0.00 | 0.00 | 45 | 1015.3 |
| 20260904055008 | 69 | 204 | 5.0 | 8.0 | 0.00 | 0.00 | 0.00 | 45 | 1015.3 |
| 20260904054513 | 68 | 203 | 5.0 | 8.0 | 0.00 | 0.00 | 0.00 | 48 | 1015.3 |
| 20260904054016 | 67 | 219 | 4.0 | 7.0 | 0.00 | 0.00 | 0.00 | 47 | 1015.2 |
| 20260904053515 | 68 | 154 | 3.0 | 5.0 | 0.00 | 0.00 | 0.00 | 47 | 1015.3 |
| 20260904053015 | 69 | 153 | 3.0 | 5.0 | 0.00 | 0.00 | 0.00 | 45 | 1015.1 |
| 20260904052513 | 69 | 148 | 0.0 | 4.0 | 0.00 | 0.00 | 0.00 | 45 | 1015.1 |
| 20260904052013 | 69 | 148 | 0.0 | 5.0 | 0.00 | 0.00 | 0.00 | 46 | 1015.1 |
| 20260904051513 | 69 | 148 | 2.0 | 5.0 | 0.00 | 0.00 | 0.00 | 46 | 1015.1 |
| 20260904051015 | 69 | 153 | 1.0 | 5.0 | 0.00 | 0.00 | 0.00 | 45 | 1015.1 |
| 20260904050512 | 69 | 234 | 1.0 | 3.0 | 0.00 | 0.00 | 0.00 | 44 | 1014.9 |
| 20260904050026 | 69 | 237 | 1.0 | 3.0 | 0.00 | 0.00 | 0.00 | 43 | 1014.7 |
| 20260904045515 | 69 | 243 | 0.0 | 3.0 | 0.00 | 0.00 | 0.00 | 44 | 1014.7 |
| 20260904045015 | 69 | 243 | 0.0 | 3.0 | 0.00 | 0.00 | 0.00 | 43 | 1014.5 |
| 20260904044519 | 69 | 243 | 0.0 | 3.0 | 0.00 | 0.00 | 0.00 | 43 | 1014.4 |
| 20260904044014 | 69 | 243 | 0.0 | 6.0 | 0.00 | 0.00 | 0.00 | 44 | 1014.4 |
| 20260904043513 | 69 | 243 | 3.0 | 6.0 | 0.00 | 0.00 | 0.00 | 43 | 1014.4 |
| 20260904043019 | 69 | 238 | 3.0 | 6.0 | 0.00 | 0.00 | 0.00 | 44 | 1014.3 |
| 20260904042519 | 68 | 251 | 4.0 | 7.0 | 0.00 | 0.00 | 0.00 | 46 | 1014.3 |
| 20260904042019 | 67 | 246 | 4.0 | 7.0 | 0.00 | 0.00 | 0.00 | 47 | 1014.2 |
| 20260904041515 | 66 | 234 | 4.0 | 5.0 | 0.00 | 0.00 | 0.00 | 47 | 1014.2 |
| 20260904041014 | 68 | 221 | 2.0 | 4.0 | 0.00 | 0.00 | 0.00 | 47 | 1014.1 |
| 20260904040515 | 69 | 221 | 2.0 | 4.0 | 0.00 | 0.00 | 0.00 | 43 | 1014.0 |
| 20260904040014 | 69 | 221 | 0.0 | 3.0 | 0.00 | 0.00 | 0.00 | 41 | 1014.2 |
| 20260904035514 | 69 | 221 | 1.0 | 3.0 | 0.00 | 0.04 | 0.00 | 39 | 1014.2 |
| 20260904035014 | 71 | 221 | 0.0 | 4.0 | 0.00 | 0.04 | 0.00 | 40 | 1014.2 |
| 20260904034516 | 72 | 221 | 2.0 | 4.0 | 0.00 | 0.04 | 0.00 | 35 | 1014.1 |
| 20260904034016 | 73 | 221 | 1.0 | 6.0 | 0.00 | 0.04 | 0.00 | 35 | 1014.1 |
| 20260904033517 | 75 | 221 | 3.0 | 7.0 | 0.00 | 0.04 | 0.00 | 34 | 1014.0 |
| 20260904033016 | 75 | 96 | 4.0 | 7.0 | 0.00 | 0.04 | 0.00 | 33 | 1013.7 |
| 20260904032516 | 75 | 97 | 4.0 | 9.0 | 0.00 | 0.04 | 0.00 | 31 | 1013.7 |
| 20260904032015 | 76 | 94 | 3.0 | 9.0 | 0.00 | 0.04 | 0.00 | 31 | 1013.7 |
| 20260904031515 | 76 | 85 | 5.0 | 8.0 | 0.00 | 0.04 | 0.00 | 32 | 1013.7 |
| 20260904031016 | 75 | 83 | 3.0 | 6.0 | 0.00 | 0.04 | 0.00 | 31 | 1013.6 |
| 20260904030515 | 75 | 78 | 2.0 | 6.0 | 0.00 | 0.04 | 0.00 | 31 | 1013.7 |
| 20260904030016 | 76 | 65 | 2.0 | 6.0 | 0.00 | 0.04 | 0.00 | 30 | 1013.7 |
| 20260904025515 | 77 | 56 | 2.0 | 5.0 | 0.00 | 0.04 | 0.00 | 29 | 1013.7 |
| 20260904025017 | 77 | 54 | 2.0 | 6.0 | 0.00 | 0.04 | 0.00 | 29 | 1013.8 |
| 20260904024513 | 78 | 56 | 3.0 | 7.0 | 0.00 | 0.04 | 0.00 | 28 | 1013.7 |
| 20260904024015 | 78 | 53 | 3.0 | 9.0 | 0.00 | 0.04 | 0.00 | 28 | 1013.7 |
| 20260904023514 | 79 | 72 | 3.0 | 9.0 | 0.00 | 0.04 | 0.00 | 27 | 1013.7 |
| 20260904023018 | 79 | 66 | 2.0 | 6.0 | 0.00 | 0.04 | 0.00 | 27 | 1013.6 |
| 20260904022521 | 79 | 57 | 3.0 | 6.0 | 0.00 | 0.04 | 0.00 | 27 | 1013.6 |
| 20260904022017 | 79 | 64 | 2.0 | 5.0 | 0.00 | 0.04 | 0.00 | 27 | 1013.6 |
| 20260904021517 | 79 | 55 | 2.0 | 5.0 | 0.00 | 0.04 | 0.00 | 28 | 1013.5 |
| 20260904021015 | 79 | 25 | 1.0 | 5.0 | 0.00 | 0.04 | 0.00 | 27 | 1013.4 |
| 20260904020515 | 80 | 37 | 2.0 | 5.0 | 0.00 | 0.04 | 0.00 | 26 | 1013.4 |
| 20260904020016 | 81 | 44 | 2.0 | 5.0 | 0.00 | 0.04 | 0.00 | 25 | 1013.4 |
| 20260904015515 | 81 | 52 | 2.0 | 5.0 | 0.00 | 0.04 | 0.00 | 25 | 1013.4 |
| 20260904015015 | 82 | 53 | 1.0 | 4.0 | 0.00 | 0.04 | 0.00 | 24 | 1013.4 |
| 20260904014519 | 83 | 53 | 0.0 | 4.0 | 0.00 | 0.04 | 0.00 | 23 | 1013.4 |
| 20260904014022 | 83 | 54 | 1.0 | 5.0 | 0.00 | 0.04 | 0.00 | 22 | 1013.4 |
| 20260904013620 | 83 | 54 | 1.0 | 6.0 | 0.00 | 0.04 | 0.00 | 22 | 1013.4 |
| 20260904013017 | 83 | 53 | 2.0 | 6.0 | 0.00 | 0.04 | 0.00 | 23 | 1013.5 |
| 20260904012517 | 83 | 53 | 1.0 | 7.0 | 0.00 | 0.04 | 0.00 | 22 | 1013.5 |
| 20260904012016 | 83 | 58 | 0.0 | 4.0 | 0.00 | 0.04 | 0.00 | 23 | 1013.5 |
| 20260904011518 | 83 | 84 | 1.0 | 4.0 | 0.00 | 0.04 | 0.00 | 23 | 1013.5 |
| 20260904011018 | 84 | 87 | 1.0 | 8.0 | 0.00 | 0.04 | 0.00 | 23 | 1013.5 |
| 20260904010521 | 84 | 86 | 2.0 | 8.0 | 0.00 | 0.04 | 0.00 | 23 | 1013.5 |
| 20260904010018 | 84 | 95 | 1.0 | 8.0 | 0.00 | 0.04 | 0.00 | 23 | 1013.5 |
| 20260904005518 | 85 | 96 | 3.0 | 8.0 | 0.00 | 0.04 | 0.00 | 23 | 1013.5 |
| 20260904005017 | 85 | 95 | 5.0 | 8.0 | 0.00 | 0.04 | 0.00 | 22 | 1013.5 |
| 20260904004516 | 85 | 98 | 4.0 | 8.0 | 0.00 | 0.04 | 0.00 | 23 | 1013.5 |
| 20260904004020 | 86 | 98 | 4.0 | 10.0 | 0.00 | 0.04 | 0.00 | 22 | 1013.5 |
| 20260904003521 | 86 | 94 | 4.0 | 10.0 | 0.00 | 0.04 | 0.00 | 22 | 1013.6 |
| 20260904003021 | 87 | 96 | 4.0 | 9.0 | 0.00 | 0.04 | 0.00 | 22 | 1013.5 |
| 20260904002624 | 87 | 93 | 6.0 | 10.0 | 0.00 | 0.04 | 0.00 | 22 | 1013.6 |